AAL997 KMSY-KSAT

Flight info

Callsign AAL997
Flight time 1h 22m
Altitude 36000
Route LFT LCH CAAGE QERVO3
Aircraft B738/M-SDE2E3FGHIRWXY/LB1

Departure

Time 2026-05-03 20:15
Airport Louis Armstrong New Orleans International Airport (KMSY)

Arrival

Time 2026-05-03 21:37
Airport San Antonio International Airport (KSAT)
Time Latitude Longitude Altitude Speed Heading
2026-05-03 20:15 29.99266 -90.26527 13 ft 164 kts 104°
2026-05-03 20:15 29.98930 -90.25204 538 ft 178 kts 107°
2026-05-03 20:15 29.98549 -90.23895 1391 ft 175 kts 108°
2026-05-03 20:15 29.98035 -90.22630 1984 ft 179 kts 131°
2026-05-03 20:16 29.96911 -90.21961 2343 ft 193 kts 180°
2026-05-03 20:16 29.95641 -90.22472 2740 ft 203 kts 225°
2026-05-03 20:16 29.94884 -90.23883 3112 ft 217 kts 252°
2026-05-03 20:16 29.94596 -90.25633 3529 ft 233 kts 271°
2026-05-03 20:17 29.94852 -90.27522 4042 ft 246 kts 286°
2026-05-03 20:17 29.95274 -90.29478 4533 ft 262 kts 284°
2026-05-03 20:17 29.95639 -90.31580 5214 ft 270 kts 282°
2026-05-03 20:17 29.95960 -90.33727 5941 ft 275 kts 281°
2026-05-03 20:18 29.96259 -90.35877 6624 ft 277 kts 280°
2026-05-03 20:18 29.96558 -90.38085 7261 ft 282 kts 281°
2026-05-03 20:18 29.96895 -90.40288 7974 ft 282 kts 282°
2026-05-03 20:18 29.97250 -90.42521 8639 ft 284 kts 282°
2026-05-03 20:19 29.97583 -90.44758 9266 ft 290 kts 282°
2026-05-03 20:19 29.97913 -90.47048 9949 ft 292 kts 281°
2026-05-03 20:19 29.98253 -90.49384 10482 ft 301 kts 282°
2026-05-03 20:19 29.98612 -90.51827 10848 ft 316 kts 281°
2026-05-03 20:20 29.98987 -90.54368 11235 ft 329 kts 281°
2026-05-03 20:20 29.99374 -90.56998 11772 ft 337 kts 280°
2026-05-03 20:20 29.99762 -90.59639 12432 ft 340 kts 280°
2026-05-03 20:20 30.00155 -90.62322 13131 ft 342 kts 279°
2026-05-03 20:21 30.00553 -90.65044 13828 ft 345 kts 279°
2026-05-03 20:21 30.00952 -90.67783 14533 ft 347 kts 279°
2026-05-03 20:21 30.01347 -90.70489 15228 ft 349 kts 279°
2026-05-03 20:21 30.01751 -90.73261 15928 ft 352 kts 279°
2026-05-03 20:22 30.02158 -90.76058 16625 ft 354 kts 278°
2026-05-03 20:22 30.02561 -90.78841 17304 ft 356 kts 278°
2026-05-03 20:22 30.02973 -90.81678 17982 ft 359 kts 278°
2026-05-03 20:22 30.03382 -90.84490 18640 ft 361 kts 278°
2026-05-03 20:23 30.03795 -90.87336 19307 ft 362 kts 278°
2026-05-03 20:23 30.04210 -90.90208 19965 ft 364 kts 278°
2026-05-03 20:23 30.04625 -90.93078 20608 ft 365 kts 278°
2026-05-03 20:23 30.05045 -90.95969 21234 ft 367 kts 278°
2026-05-03 20:24 30.05460 -90.98836 21835 ft 367 kts 278°
2026-05-03 20:24 30.05880 -91.01752 22431 ft 368 kts 278°
2026-05-03 20:24 30.06296 -91.04630 23010 ft 369 kts 278°
2026-05-03 20:24 30.06723 -91.07578 23582 ft 369 kts 277°
2026-05-03 20:25 30.07141 -91.10480 24133 ft 370 kts 277°
2026-05-03 20:25 30.07559 -91.13425 24677 ft 370 kts 277°
2026-05-03 20:25 30.07973 -91.16356 25211 ft 371 kts 277°
2026-05-03 20:25 30.08391 -91.19305 25742 ft 371 kts 277°
2026-05-03 20:26 30.08808 -91.22269 26243 ft 373 kts 277°
2026-05-03 20:26 30.09224 -91.25220 26738 ft 375 kts 277°
2026-05-03 20:26 30.09649 -91.28216 27233 ft 377 kts 277°
2026-05-03 20:26 30.10069 -91.31177 27707 ft 378 kts 277°
2026-05-03 20:27 30.10495 -91.34178 28160 ft 380 kts 277°
2026-05-03 20:27 30.10922 -91.37199 28608 ft 381 kts 277°
2026-05-03 20:27 30.11345 -91.40195 29056 ft 383 kts 277°
2026-05-03 20:27 30.11771 -91.43222 29508 ft 385 kts 277°
2026-05-03 20:28 30.12203 -91.46294 29957 ft 386 kts 277°
2026-05-03 20:28 30.12629 -91.49329 30392 ft 387 kts 277°
2026-05-03 20:28 30.13059 -91.52403 30823 ft 388 kts 277°
2026-05-03 20:28 30.13494 -91.55517 31242 ft 390 kts 277°
2026-05-03 20:29 30.13923 -91.58597 31597 ft 391 kts 277°
2026-05-03 20:29 30.14359 -91.61721 32144 ft 387 kts 277°
2026-05-03 20:29 30.14782 -91.64761 32580 ft 386 kts 277°
2026-05-03 20:29 30.15209 -91.67841 33055 ft 385 kts 277°
2026-05-03 20:30 30.15627 -91.70864 33500 ft 383 kts 277°
2026-05-03 20:30 30.16042 -91.73872 33938 ft 382 kts 277°
2026-05-03 20:30 30.16462 -91.76926 34369 ft 381 kts 277°
2026-05-03 20:30 30.16873 -91.79922 34773 ft 380 kts 277°
2026-05-03 20:31 30.17283 -91.82916 35129 ft 379 kts 277°
2026-05-03 20:31 30.17696 -91.85938 35483 ft 378 kts 276°
2026-05-03 20:31 30.18103 -91.88917 35820 ft 377 kts 276°
2026-05-03 20:31 30.18505 -91.91866 36127 ft 376 kts 276°
2026-05-03 20:32 30.18913 -91.94870 36209 ft 379 kts 276°
2026-05-03 20:32 30.19368 -92.00853 36217 ft 373 kts 269°
2026-05-03 20:33 30.19166 -92.06844 36203 ft 372 kts 266°
2026-05-03 20:33 30.18851 -92.12785 36203 ft 373 kts 266°
2026-05-03 20:34 30.18551 -92.18747 36200 ft 373 kts 266°
2026-05-03 20:34 30.18270 -92.24721 36200 ft 374 kts 266°
2026-05-03 20:35 30.17996 -92.30695 36202 ft 374 kts 266°
2026-05-03 20:35 30.17727 -92.36594 36206 ft 374 kts 266°
2026-05-03 20:36 30.17454 -92.42557 36209 ft 374 kts 266°
2026-05-03 20:36 30.17178 -92.48542 36211 ft 374 kts 266°
2026-05-03 20:37 30.16898 -92.54536 36213 ft 375 kts 266°
2026-05-03 20:37 30.16615 -92.60536 36215 ft 375 kts 266°
2026-05-03 20:38 30.16327 -92.66565 36217 ft 376 kts 266°
2026-05-03 20:38 30.16037 -92.72596 36218 ft 376 kts 266°
2026-05-03 20:39 30.15745 -92.78601 36216 ft 377 kts 266°
2026-05-03 20:39 30.15449 -92.84654 36208 ft 378 kts 267°
2026-05-03 20:40 30.15149 -92.90711 36203 ft 379 kts 267°
2026-05-03 20:40 30.14847 -92.96757 36204 ft 379 kts 267°
2026-05-03 20:41 30.14539 -93.02853 36206 ft 380 kts 267°
2026-05-03 20:41 30.14232 -93.08884 36208 ft 379 kts 267°
2026-05-03 20:42 30.13868 -93.14964 36210 ft 380 kts 266°
2026-05-03 20:42 30.13404 -93.21052 36210 ft 381 kts 266°
2026-05-03 20:43 30.12931 -93.27113 36211 ft 381 kts 266°
2026-05-03 20:43 30.12460 -93.33207 36211 ft 381 kts 266°
2026-05-03 20:44 30.11995 -93.39297 36211 ft 381 kts 266°
2026-05-03 20:44 30.11531 -93.45359 36211 ft 380 kts 267°
2026-05-03 20:45 30.11071 -93.51355 36211 ft 380 kts 267°
2026-05-03 20:45 30.10601 -93.57445 36211 ft 381 kts 267°
2026-05-03 20:46 30.10131 -93.63500 36211 ft 381 kts 267°
2026-05-03 20:46 30.09653 -93.69616 36213 ft 380 kts 267°
2026-05-03 20:47 30.09180 -93.75643 36215 ft 380 kts 267°
2026-05-03 20:47 30.08699 -93.81722 36217 ft 380 kts 267°
2026-05-03 20:48 30.08217 -93.87790 36218 ft 380 kts 267°
2026-05-03 20:48 30.07734 -93.93833 36218 ft 379 kts 267°
2026-05-03 20:49 30.07249 -93.99869 36217 ft 379 kts 267°
2026-05-03 20:49 30.06761 -94.05898 36213 ft 379 kts 267°
2026-05-03 20:50 30.06267 -94.11966 36208 ft 379 kts 267°
2026-05-03 20:50 30.05774 -94.17996 36203 ft 379 kts 267°
2026-05-03 20:51 30.05275 -94.24039 36198 ft 379 kts 267°
2026-05-03 20:51 30.04775 -94.30081 36195 ft 379 kts 267°
2026-05-03 20:52 30.04274 -94.36122 36193 ft 379 kts 267°
2026-05-03 20:52 30.03771 -94.42130 36193 ft 380 kts 267°
2026-05-03 20:53 30.03263 -94.48164 36195 ft 380 kts 267°
2026-05-03 20:53 30.02752 -94.54202 36195 ft 380 kts 267°
2026-05-03 20:54 30.02321 -94.59257 36195 ft 380 kts 267°
2026-05-03 20:54 30.01456 -94.69367 36193 ft 381 kts 267°
2026-05-03 20:55 30.00935 -94.75410 36192 ft 381 kts 267°
2026-05-03 20:55 30.00406 -94.81501 36192 ft 380 kts 267°
2026-05-03 20:56 29.99881 -94.87560 36193 ft 381 kts 268°
2026-05-03 20:56 29.99349 -94.93625 36188 ft 381 kts 268°
2026-05-03 20:57 29.98815 -94.99654 36181 ft 377 kts 268°
2026-05-03 20:57 29.98284 -95.05634 36191 ft 375 kts 268°
2026-05-03 20:58 29.97750 -95.11634 36202 ft 375 kts 268°
2026-05-03 20:58 29.97217 -95.17583 36202 ft 375 kts 268°
2026-05-03 20:59 29.96684 -95.23522 36198 ft 375 kts 269°
2026-05-03 20:59 29.96143 -95.29511 36193 ft 375 kts 269°
2026-05-03 21:00 29.95783 -95.33490 36192 ft 375 kts 268°
2026-05-03 21:00 29.94412 -95.41393 36192 ft 379 kts 262°
2026-05-03 21:01 29.93101 -95.47276 36192 ft 380 kts 262°
2026-05-03 21:01 29.91809 -95.53165 36192 ft 380 kts 262°
2026-05-03 21:02 29.90546 -95.59049 36191 ft 380 kts 263°
2026-05-03 21:02 29.89286 -95.64980 36189 ft 381 kts 263°
2026-05-03 21:03 29.88027 -95.70925 36190 ft 382 kts 263°
2026-05-03 21:03 29.86772 -95.76833 36190 ft 381 kts 263°
2026-05-03 21:04 29.85515 -95.82741 36193 ft 382 kts 263°
2026-05-03 21:04 29.84259 -95.88628 36196 ft 382 kts 263°
2026-05-03 21:05 29.82991 -95.94557 36198 ft 382 kts 263°
2026-05-03 21:05 29.81720 -96.00489 36199 ft 382 kts 263°
2026-05-03 21:06 29.80441 -96.06440 36199 ft 382 kts 263°
2026-05-03 21:06 29.79168 -96.12360 36199 ft 382 kts 263°
2026-05-03 21:07 29.78264 -96.18317 36198 ft 375 kts 271°
2026-05-03 21:07 29.78308 -96.24229 36197 ft 370 kts 278°
2026-05-03 21:08 29.78743 -96.30119 36195 ft 369 kts 279°
2026-05-03 21:08 29.79222 -96.35967 36194 ft 368 kts 279°
2026-05-03 21:09 29.79686 -96.41857 36196 ft 368 kts 279°
2026-05-03 21:09 29.80127 -96.47681 36195 ft 368 kts 279°
2026-05-03 21:10 29.80554 -96.53484 36182 ft 358 kts 280°
2026-05-03 21:10 29.80963 -96.59126 36177 ft 350 kts 281°
2026-05-03 21:11 29.81375 -96.64677 36096 ft 350 kts 281°
2026-05-03 21:11 29.81579 -96.67443 35789 ft 347 kts 280°
2026-05-03 21:11 29.81784 -96.70207 35290 ft 354 kts 280°
2026-05-03 21:12 29.81994 -96.73022 34541 ft 355 kts 280°
2026-05-03 21:12 29.82200 -96.75839 33893 ft 355 kts 280°
2026-05-03 21:12 29.82407 -96.78680 33231 ft 355 kts 280°
2026-05-03 21:12 29.82611 -96.81499 32527 ft 355 kts 280°
2026-05-03 21:13 29.82810 -96.84276 31993 ft 348 kts 279°
2026-05-03 21:13 29.83003 -96.87023 31553 ft 340 kts 279°
2026-05-03 21:13 29.83192 -96.89708 31134 ft 332 kts 279°
2026-05-03 21:13 29.83375 -96.92297 30730 ft 325 kts 279°
2026-05-03 21:14 29.83564 -96.94920 30325 ft 335 kts 279°
2026-05-03 21:14 29.83766 -96.97633 29879 ft 349 kts 279°
2026-05-03 21:14 29.83968 -97.00422 29405 ft 349 kts 279°
2026-05-03 21:14 29.84163 -97.03195 28955 ft 342 kts 278°
2026-05-03 21:15 29.84350 -97.05897 28507 ft 337 kts 278°
2026-05-03 21:15 29.84534 -97.08556 28060 ft 332 kts 278°
2026-05-03 21:15 29.84716 -97.11173 27566 ft 329 kts 278°
2026-05-03 21:15 29.84900 -97.13780 27008 ft 327 kts 278°
2026-05-03 21:16 29.85082 -97.16372 26526 ft 323 kts 278°
2026-05-03 21:16 29.85262 -97.18942 26073 ft 318 kts 278°
2026-05-03 21:16 29.85437 -97.21448 25638 ft 313 kts 278°
2026-05-03 21:16 29.85610 -97.23923 25223 ft 316 kts 277°
2026-05-03 21:17 29.85797 -97.26544 24777 ft 334 kts 277°
2026-05-03 21:17 29.85922 -97.28301 24459 ft 336 kts 277°
2026-05-03 21:17 29.86167 -97.31830 23830 ft 330 kts 277°
2026-05-03 21:17 29.86345 -97.34449 23371 ft 325 kts 277°
2026-05-03 21:18 29.86520 -97.37029 22923 ft 320 kts 277°
2026-05-03 21:18 29.86691 -97.39551 22481 ft 315 kts 277°
2026-05-03 21:18 29.86860 -97.42039 22043 ft 311 kts 276°
2026-05-03 21:18 29.87029 -97.44514 21602 ft 307 kts 276°
2026-05-03 21:19 29.87196 -97.46969 21168 ft 319 kts 276°
2026-05-03 21:19 29.87375 -97.49590 20693 ft 331 kts 276°
2026-05-03 21:19 29.87553 -97.52220 20212 ft 328 kts 276°
2026-05-03 21:19 29.87727 -97.54823 19740 ft 324 kts 276°
2026-05-03 21:20 29.87896 -97.57384 19278 ft 320 kts 276°
2026-05-03 21:20 29.88063 -97.59905 18815 ft 316 kts 276°
2026-05-03 21:20 29.88229 -97.62424 18350 ft 313 kts 276°
2026-05-03 21:20 29.88394 -97.64925 17890 ft 310 kts 276°
2026-05-03 21:21 29.88556 -97.67377 17390 ft 309 kts 276°
2026-05-03 21:21 29.88719 -97.69845 16845 ft 310 kts 276°
2026-05-03 21:21 29.88882 -97.72308 16379 ft 308 kts 276°
2026-05-03 21:21 29.89041 -97.74745 15928 ft 306 kts 276°
2026-05-03 21:22 29.89198 -97.77159 15487 ft 304 kts 276°
2026-05-03 21:22 29.89356 -97.79583 15047 ft 302 kts 276°
2026-05-03 21:22 29.89513 -97.82006 14612 ft 306 kts 276°
2026-05-03 21:22 29.89608 -97.84506 14148 ft 321 kts 271°
2026-05-03 21:23 29.89380 -97.87083 13669 ft 322 kts 260°
2026-05-03 21:23 29.88768 -97.89539 13217 ft 321 kts 253°
2026-05-03 21:23 29.87993 -97.91944 12759 ft 319 kts 251°
2026-05-03 21:23 29.87170 -97.94324 12297 ft 317 kts 250°
2026-05-03 21:24 29.86359 -97.96654 11838 ft 315 kts 250°
2026-05-03 21:24 29.85553 -97.98993 11390 ft 313 kts 250°
2026-05-03 21:24 29.84761 -98.01331 10935 ft 311 kts 252°
2026-05-03 21:24 29.84215 -98.03698 10532 ft 305 kts 264°
2026-05-03 21:25 29.84274 -98.06110 10324 ft 293 kts 278°
2026-05-03 21:25 29.84590 -98.08372 10226 ft 280 kts 280°
2026-05-03 21:25 29.84925 -98.10530 10127 ft 268 kts 280°
2026-05-03 21:25 29.85228 -98.12618 9911 ft 262 kts 279°
2026-05-03 21:26 29.85503 -98.14703 9528 ft 263 kts 278°
2026-05-03 21:26 29.85760 -98.16771 9186 ft 262 kts 278°
2026-05-03 21:26 29.86012 -98.18853 8844 ft 261 kts 277°
2026-05-03 21:26 29.86262 -98.20920 8506 ft 261 kts 277°
2026-05-03 21:27 29.86510 -98.22976 8169 ft 260 kts 277°
2026-05-03 21:27 29.86760 -98.25039 7833 ft 259 kts 277°
2026-05-03 21:27 29.87008 -98.27086 7498 ft 259 kts 277°
2026-05-03 21:27 29.87256 -98.29131 7270 ft 254 kts 277°
2026-05-03 21:28 29.87497 -98.31119 7189 ft 243 kts 277°
2026-05-03 21:28 29.87723 -98.32986 7116 ft 232 kts 277°
2026-05-03 21:28 29.87939 -98.34782 7023 ft 223 kts 277°
2026-05-03 21:28 29.87918 -98.36568 7029 ft 218 kts 250°
2026-05-03 21:29 29.87137 -98.37978 7032 ft 210 kts 223°
2026-05-03 21:29 29.86083 -98.39168 7024 ft 211 kts 232°
2026-05-03 21:29 29.85382 -98.40645 7029 ft 212 kts 246°
2026-05-03 21:29 29.84833 -98.42245 7026 ft 212 kts 246°
2026-05-03 21:30 29.84252 -98.43811 7023 ft 212 kts 244°
2026-05-03 21:30 29.83643 -98.45342 7019 ft 212 kts 244°
2026-05-03 21:30 29.83016 -98.46888 7015 ft 212 kts 243°
2026-05-03 21:30 29.82264 -98.48356 7010 ft 211 kts 227°
2026-05-03 21:31 29.81070 -98.49294 6917 ft 211 kts 197°
2026-05-03 21:31 29.79606 -98.49629 6542 ft 215 kts 187°
2026-05-03 21:31 29.78116 -98.49885 6215 ft 216 kts 189°
2026-05-03 21:31 29.76631 -98.50197 5914 ft 216 kts 190°
2026-05-03 21:32 29.75168 -98.50525 5626 ft 216 kts 190°
2026-05-03 21:32 29.73695 -98.50854 5334 ft 215 kts 190°
2026-05-03 21:32 29.72210 -98.51185 5044 ft 215 kts 190°
2026-05-03 21:32 29.70739 -98.51510 4753 ft 215 kts 190°
2026-05-03 21:33 29.69275 -98.51778 4465 ft 214 kts 182°
2026-05-03 21:33 29.67830 -98.51503 4247 ft 206 kts 151°
2026-05-03 21:33 29.66752 -98.50469 3951 ft 205 kts 131°
2026-05-03 21:33 29.65802 -98.49228 3664 ft 204 kts 132°
2026-05-03 21:34 29.64844 -98.48048 3487 ft 198 kts 134°
2026-05-03 21:34 29.63923 -98.46944 3469 ft 188 kts 134°
2026-05-03 21:34 29.62984 -98.45830 2994 ft 201 kts 135°
2026-05-03 21:34 29.61976 -98.44680 2695 ft 200 kts 137°
2026-05-03 21:35 29.60994 -98.43603 2511 ft 189 kts 137°
2026-05-03 21:35 29.60116 -98.42657 2481 ft 157 kts 138°
2026-05-03 21:35 29.59269 -98.41959 2206 ft 145 kts 155°
2026-05-03 21:35 29.58307 -98.41717 1888 ft 145 kts 181°
2026-05-03 21:36 29.57340 -98.42074 1631 ft 149 kts 211°
2026-05-03 21:36 29.56530 -98.42843 1451 ft 150 kts 220°
2026-05-03 21:36 29.55741 -98.43641 1205 ft 154 kts 219°
2026-05-03 21:36 29.54920 -98.44448 1065 ft 154 kts 217°
2026-05-03 21:37 29.54096 -98.45243 866 ft 153 kts 218°
2026-05-03 21:37 29.53365 -98.45955 818 ft 109 kts 219°
2026-05-03 21:37 29.52917 -98.46398 818 ft 71 kts 221°
2026-05-03 21:37 29.52567 -98.46748 818 ft 47 kts 222°
2026-05-03 21:38 29.52445 -98.46912 818 ft 16 kts 275°
2026-05-03 21:38 29.52473 -98.46983 818 ft 3 kts 284°
2026-05-03 21:38 29.52471 -98.47009 818 ft 2 kts 247°
2026-05-03 21:38 29.52465 -98.47028 818 ft 1 kts 262°
2026-05-03 21:39 29.52467 -98.47041 818 ft 1 kts 288°
2026-05-03 21:39 29.52484 -98.47097 818 ft 10 kts 289°
2026-05-03 21:39 29.52502 -98.47141 818 ft 4 kts 310°
2026-05-03 21:39 29.52524 -98.47163 818 ft 3 kts 327°
2026-05-03 21:40 29.52528 -98.47166 818 ft 0 kts 327°
2026-05-03 21:40 29.52529 -98.47166 818 ft 0 kts 324°